Hourly Weather Roundup
Issued by NWS Central Illinois

Home | Current Version | Previous Version | Text Only | Print | Product List | Glossary On
Versions: 1 2 3 4 5 6 7 8 9 10 11 12 13 14 15 16 17 18 19 20 21 22 23 24 25 26 27 28 29 30 31 32 33 34 35 36 37 38 39 40 41 42 43 44 45 46 47 48 49 50
617
NZUS43 KILX 230510
HWRILX

Area Weather Roundup
National Weather Service Lincoln IL
1200 AM CDT SUN APR 23 2017

NOTE:  "FAIR" indicates few or no clouds below 12,000 feet, with
       no sigificant weather and/or obstructions to visibility.


CITY           SKY/WX    TMP DP  RH WIND       PRES   REMARKS
Bloomington    CLEAR     41  29  62 NE6       30.16R
Champaign      CLEAR     45  26  47 NE13      30.14R
Danville       CLEAR     42  29  59 NE8       30.11S
Decatur        CLEAR     40  33  76 NE9       30.13R WCI  34
Effingham      CLEAR     47  37  69 N6        30.11R
Flora          CLEAR     51  36  55 NE13      30.07S
Galesburg      CLEAR     42  33  70 CALM      30.15S
Jacksonville   CLEAR     46  28  49 N8        30.14R
Lacon          CLEAR     46  26  46 E8        30.14F
Lawrenceville  CLEAR     49  35  58 NE12      30.07S
Litchfield     CLEAR     48  34  57 NE8       30.11R
$$


CITY           SKY/WX    TMP DP  RH WIND       PRES   REMARKS
Lincoln        CLEAR     46  32  59 NE7       30.15R
Macomb         CLEAR     43  32  66 CALM      30.18R
Mattoon        CLEAR     43  35  73 NE7       30.10S
Mt Carmel AP   CLEAR     49  35  58 NE13      30.06S
Olney-Noble AP CLEAR     49  35  58 NE9       30.07S
Paris AP       CLEAR     46  35  66 N7        30.12S
Peoria         CLEAR     47  27  45 NE5       30.16R
Pontiac        CLEAR     44  30  59 NE9       30.16S
Rantoul        CLEAR     46  28  50 NE8       30.14R
Robinson       CLEAR     44  36  73 N7        30.09S
Springfield    CLEAR     49  31  49 NE9       30.14R
Taylorville    CLEAR     47  32  55 NE9       30.13R
$$

...REGIONAL REPORTS...


CITY           SKY/WX    TMP DP  RH WIND       PRES   REMARKS
Chicago O`Hare CLEAR     45  23  42 CALM      30.15F
Kankakee       CLEAR     40  30  66 CALM      30.17R
Moline         CLEAR     44  37  76 CALM      30.16S
Mount Sterling CLEAR     50  29  44 NE6       30.14S
Mount Vernon   CLEAR     49  37  63 NE9       30.06S
Pittsfield     CLEAR     50  29  44 N3        30.15R
Quincy         CLEAR     46  31  55 N7        30.15R
Rockford       CLEAR     44  35  70 S3        30.17F
$$


CITY           SKY/WX    TMP DP  RH WIND       PRES   REMARKS
Burlington     CLEAR     46  36  68 CALM      30.16R
Cedar Rapids   CLEAR     49  29  46 CALM      30.16F
Des Moines     CLEAR     53  30  41 CALM      30.18S
Kirksville     CLEAR     44  34  67 N5        30.17S
Ottumwa        CLEAR     48  28  46 N5        30.17S
St Louis       CLEAR     49  37  63 E6        30.10S
$$


CITY           SKY/WX    TMP DP  RH WIND       PRES   REMARKS
Terre Haute    CLEAR     44  33  65 NE6       30.09S
Evansville     CLOUDY    52  40  63 NE14      30.03S
Indianapolis   CLEAR     48  31  51 NE12      30.09S
Lafayette      CLEAR     43  31  62 N8        30.13R
Madison        CLEAR     44  34  67 CALM      30.14S
Milwaukee      CLEAR     44  28  53 CALM      30.14F
$$






USA.gov is the U.S. government's official web portal to all federal, state and local government web resources and services.